When you browse on this site, cookies collect data to enhance your experience and personalize the content and advertising you see.
Visit our Privacy Policy to learn more. By continuing to use the site, you agree to this use of cookies and data.
  • In Portugal
  • List of Countries
  • For 7 days
  • Water Temperature
  • Weather Map
  • Weather Widgets
  • user-avatar
    Login

    Hourly Weather Santa Fe

    Today, 24 October, Thursday

    Time Temperature Precipitation Wind Pressure Humidity
    00:00 +18°C° 0 mm 1 mps 759 mmHg 77%
    01:00 +16°C° 0 mm 1 mps 759 mmHg 78%
    02:00 +16°C° 0 mm 1 mps 759 mmHg 80%
    03:00 +16°C° 0 mm 1 mps 759 mmHg 82%
    04:00 +15°C° 0 mm 2 mps 759 mmHg 83%
    05:00 +15°C° 0 mm 2 mps 759 mmHg 85%
    06:00 +17°C° 0 mm 2 mps 759 mmHg 78%
    07:00 +19°C° 0 mm 2 mps 760 mmHg 71%
    08:00 +21°C° 0 mm 2 mps 760 mmHg 65%
    09:00 +24°C° 0 mm 2 mps 760 mmHg 59%
    10:00 +25°C° 0 mm 2 mps 759 mmHg 53%
    11:00 +27°C° 0 mm 2 mps 759 mmHg 47%
    12:00 +28°C° 0 mm 2 mps 759 mmHg 45%
    13:00 +29°C° 0 mm 2 mps 758 mmHg 43%
    14:00 +30°C° 0 mm 2 mps 757 mmHg 40%
    15:00 +29°C° 0 mm 2 mps 757 mmHg 43%
    16:00 +29°C° 0 mm 2 mps 757 mmHg 46%
    17:00 +29°C° 0 mm 2 mps 757 mmHg 48%
    18:00 +27°C° 0 mm 2 mps 757 mmHg 53%
    19:00 +25°C° 0 mm 3 mps 757 mmHg 58%
    20:00 +22°C° 0 mm 4 mps 758 mmHg 62%
    21:00 +21°C° 0 mm 4 mps 758 mmHg 66%
    22:00 +21°C° 0 mm 3 mps 759 mmHg 69%
    23:00 +20°C° 0 mm 3 mps 760 mmHg 73%

    Tomorrow, 25 October, Friday

    Time Temperature Precipitation Wind Pressure Humidity
    00:00 +20°C° 0.5 mm 4 mps 759 mmHg 78%
    01:00 +19°C° 0.5 mm 4 mps 759 mmHg 83%
    02:00 +17°C° 0.5 mm 5 mps 759 mmHg 88%
    03:00 +18°C° 0.3 mm 4 mps 759 mmHg 86%
    04:00 +18°C° 0.3 mm 4 mps 760 mmHg 84%
    05:00 +18°C° 0.3 mm 4 mps 760 mmHg 81%
    06:00 +20°C° 0 mm 4 mps 760 mmHg 76%
    07:00 +21°C° 0 mm 3 mps 760 mmHg 71%
    08:00 +24°C° 0 mm 3 mps 761 mmHg 66%
    09:00 +26°C° 0 mm 3 mps 760 mmHg 59%
    10:00 +28°C° 0 mm 3 mps 760 mmHg 51%
    11:00 +30°C° 0 mm 3 mps 760 mmHg 43%
    12:00 +30°C° 0 mm 3 mps 760 mmHg 42%
    13:00 +31°C° 0 mm 3 mps 759 mmHg 40%
    14:00 +31°C° 0 mm 3 mps 758 mmHg 38%
    15:00 +31°C° 0 mm 3 mps 758 mmHg 41%
    16:00 +30°C° 0 mm 3 mps 757 mmHg 45%
    17:00 +29°C° 0 mm 3 mps 757 mmHg 48%
    18:00 +27°C° 0 mm 4 mps 757 mmHg 51%
    19:00 +25°C° 0 mm 4 mps 757 mmHg 55%
    20:00 +22°C° 0 mm 4 mps 758 mmHg 58%
    21:00 +22°C° 0 mm 4 mps 758 mmHg 61%
    22:00 +21°C° 0 mm 4 mps 758 mmHg 64%
    23:00 +20°C° 0 mm 4 mps 757 mmHg 67%

    Day after tomorrow, 26 October, Saturday

    Time Temperature Precipitation Wind Pressure Humidity
    00:00 +19°C° 0 mm 4 mps 757 mmHg 69%
    01:00 +18°C° 0 mm 4 mps 756 mmHg 70%
    02:00 +18°C° 0 mm 4 mps 756 mmHg 72%
    03:00 +18°C° 0 mm 4 mps 756 mmHg 69%
    04:00 +17°C° 0 mm 4 mps 755 mmHg 66%
    05:00 +16°C° 0 mm 5 mps 755 mmHg 63%
    06:00 +19°C° 0 mm 5 mps 755 mmHg 58%
    07:00 +20°C° 0 mm 6 mps 755 mmHg 54%
    08:00 +22°C° 0 mm 7 mps 755 mmHg 49%
    09:00 +23°C° 0 mm 6 mps 754 mmHg 47%
    10:00 +24°C° 0 mm 6 mps 754 mmHg 44%
    11:00 +26°C° 0 mm 6 mps 753 mmHg 41%
    12:00 +27°C° 0 mm 6 mps 752 mmHg 41%
    13:00 +27°C° 0 mm 6 mps 752 mmHg 41%
    14:00 +28°C° 0 mm 6 mps 751 mmHg 41%
    15:00 +28°C° 0.1 mm 5 mps 750 mmHg 45%
    16:00 +28°C° 0.1 mm 4 mps 749 mmHg 49%
    17:00 +28°C° 0.1 mm 3 mps 749 mmHg 53%
    18:00 +27°C° 0 mm 3 mps 749 mmHg 59%
    19:00 +25°C° 0 mm 3 mps 750 mmHg 65%
    20:00 +22°C° 0 mm 3 mps 750 mmHg 71%
    21:00 +22°C° 0.2 mm 3 mps 751 mmHg 76%
    22:00 +22°C° 0.2 mm 3 mps 751 mmHg 81%
    23:00 +21°C° 0.2 mm 3 mps 752 mmHg 85%

    , 27 October, Sunday

    Time Temperature Precipitation Wind Pressure Humidity
    00:00 +21°C° 2 mm 3 mps 751 mmHg 88%
    01:00 +21°C° 2 mm 3 mps 751 mmHg 91%
    02:00 +20°C° 2 mm 3 mps 751 mmHg 93%
    03:00 +20°C° 0.6 mm 3 mps 752 mmHg 94%
    04:00 +20°C° 0.6 mm 3 mps 752 mmHg 94%
    05:00 +19°C° 0.6 mm 3 mps 752 mmHg 94%
    06:00 +21°C° 0.8 mm 3 mps 752 mmHg 91%
    07:00 +22°C° 0.8 mm 4 mps 753 mmHg 89%
    08:00 +23°C° 0.8 mm 4 mps 753 mmHg 86%
    09:00 +25°C° 0.4 mm 4 mps 753 mmHg 80%
    10:00 +27°C° 0.4 mm 4 mps 753 mmHg 75%
    11:00 +28°C° 0.4 mm 3 mps 753 mmHg 69%
    12:00 +29°C° 0.1 mm 4 mps 752 mmHg 67%
    13:00 +30°C° 0.1 mm 4 mps 752 mmHg 65%
    14:00 +30°C° 0.1 mm 4 mps 751 mmHg 63%
    15:00 +30°C° 0.1 mm 4 mps 750 mmHg 67%
    16:00 +29°C° 0.1 mm 3 mps 750 mmHg 71%
    17:00 +29°C° 0.1 mm 3 mps 749 mmHg 75%
    18:00 +28°C° 0 mm 3 mps 749 mmHg 78%
    19:00 +27°C° 0 mm 3 mps 749 mmHg 82%
    20:00 +26°C° 0 mm 3 mps 750 mmHg 86%
    21:00 +25°C° 0 mm 3 mps 750 mmHg 88%
    22:00 +25°C° 0 mm 2 mps 750 mmHg 91%
    23:00 +25°C° 0 mm 2 mps 750 mmHg 93%

    27 October, Sunday

    Time Temperature Precipitation Wind Pressure Humidity
    00:00 +21°C° 2 mm 3 mps 751 mmHg 88%
    01:00 +21°C° 2 mm 3 mps 751 mmHg 91%
    02:00 +20°C° 2 mm 3 mps 751 mmHg 93%
    03:00 +20°C° 0.6 mm 3 mps 752 mmHg 94%
    04:00 +20°C° 0.6 mm 3 mps 752 mmHg 94%
    05:00 +19°C° 0.6 mm 3 mps 752 mmHg 94%
    06:00 +21°C° 0.8 mm 3 mps 752 mmHg 91%
    07:00 +22°C° 0.8 mm 4 mps 753 mmHg 89%
    08:00 +23°C° 0.8 mm 4 mps 753 mmHg 86%
    09:00 +25°C° 0.4 mm 4 mps 753 mmHg 80%
    10:00 +27°C° 0.4 mm 4 mps 753 mmHg 75%
    11:00 +28°C° 0.4 mm 3 mps 753 mmHg 69%
    12:00 +29°C° 0.1 mm 4 mps 752 mmHg 67%
    13:00 +30°C° 0.1 mm 4 mps 752 mmHg 65%
    14:00 +30°C° 0.1 mm 4 mps 751 mmHg 63%
    15:00 +30°C° 0.1 mm 4 mps 750 mmHg 67%
    16:00 +29°C° 0.1 mm 3 mps 750 mmHg 71%
    17:00 +29°C° 0.1 mm 3 mps 749 mmHg 75%
    18:00 +28°C° 0 mm 3 mps 749 mmHg 78%
    19:00 +27°C° 0 mm 3 mps 749 mmHg 82%
    20:00 +26°C° 0 mm 3 mps 750 mmHg 86%
    21:00 +25°C° 0 mm 3 mps 750 mmHg 88%
    22:00 +25°C° 0 mm 2 mps 750 mmHg 91%
    23:00 +25°C° 0 mm 2 mps 750 mmHg 93%

    28 October, Monday

    Time Temperature Precipitation Wind Pressure Humidity
    00:00 +25°C° 0.1 mm 3 mps 749 mmHg 94%
    01:00 +24°C° 0.1 mm 3 mps 749 mmHg 95%
    02:00 +23°C° 0.1 mm 4 mps 749 mmHg 96%
    03:00 +24°C° 0.2 mm 3 mps 748 mmHg 96%
    04:00 +22°C° 0.2 mm 3 mps 748 mmHg 96%
    05:00 +22°C° 0.2 mm 3 mps 748 mmHg 96%
    06:00 +24°C° 0.5 mm 2 mps 748 mmHg 92%
    07:00 +24°C° 0.5 mm 2 mps 749 mmHg 89%
    08:00 +25°C° 0.5 mm 1 mps 749 mmHg 85%
    09:00 +25°C° 0.2 mm 3 mps 750 mmHg 84%
    10:00 +25°C° 0.2 mm 5 mps 751 mmHg 83%
    11:00 +24°C° 0.2 mm 7 mps 752 mmHg 83%
    12:00 +24°C° 0.1 mm 7 mps 752 mmHg 76%
    13:00 +23°C° 0.1 mm 7 mps 752 mmHg 69%
    14:00 +23°C° 0.1 mm 6 mps 753 mmHg 62%
    15:00 +24°C° 0 mm 6 mps 752 mmHg 59%
    16:00 +25°C° 0 mm 5 mps 752 mmHg 56%
    17:00 +25°C° 0 mm 4 mps 752 mmHg 52%
    18:00 +23°C° 0 mm 4 mps 753 mmHg 55%
    19:00 +21°C° 0 mm 4 mps 753 mmHg 58%
    20:00 +19°C° 0 mm 4 mps 753 mmHg 61%
    21:00 +19°C° 0 mm 4 mps 754 mmHg 65%
    22:00 +18°C° 0 mm 4 mps 754 mmHg 69%
    23:00 +18°C° 0 mm 4 mps 755 mmHg 73%

    29 October, Tuesday

    Time Temperature Precipitation Wind Pressure Humidity
    00:00 +15°C° 0 mm 4 mps 755 mmHg 78%
    01:00 +14°C° 0 mm 3 mps 755 mmHg 84%
    02:00 +13°C° 0 mm 3 mps 755 mmHg 90%
    03:00 +13°C° 0 mm 3 mps 755 mmHg 89%
    04:00 +14°C° 0 mm 3 mps 755 mmHg 88%
    05:00 +14°C° 0 mm 3 mps 755 mmHg 87%
    06:00 +16°C° 0 mm 3 mps 755 mmHg 81%
    07:00 +17°C° 0 mm 4 mps 755 mmHg 76%
    08:00 +18°C° 0 mm 4 mps 755 mmHg 70%
    09:00 +20°C° 0 mm 4 mps 755 mmHg 62%
    10:00 +22°C° 0 mm 4 mps 755 mmHg 55%
    11:00 +25°C° 0 mm 3 mps 755 mmHg 47%
    12:00 +26°C° 0 mm 4 mps 754 mmHg 44%
    13:00 +27°C° 0 mm 4 mps 753 mmHg 42%
    14:00 +28°C° 0 mm 4 mps 753 mmHg 39%
    15:00 +28°C° 0 mm 3 mps 752 mmHg 44%
    16:00 +27°C° 0 mm 3 mps 752 mmHg 48%
    17:00 +27°C° 0 mm 3 mps 751 mmHg 52%
    18:00 +25°C° 0 mm 3 mps 752 mmHg 58%
    19:00 +22°C° 0 mm 3 mps 752 mmHg 63%
    20:00 +20°C° 0 mm 2 mps 752 mmHg 69%
    21:00 +19°C° 0 mm 3 mps 753 mmHg 72%
    22:00 +19°C° 0 mm 3 mps 754 mmHg 75%
    23:00 +18°C° 0 mm 3 mps 754 mmHg 78%
    Show more